FW8124 Weather Reports


time (UTC)temp
C
wind
direction
speed
KPH
gust
KPH
rain 1hr
cm
rain 24hr
cm
rain mn
cm
humidity
%
barometer
mb
20260508144552 19 259 9.7 14.5 0.00 0.64 0.08 63 1012.1
20260508143051 18 257 9.7 14.5 0.00 0.64 0.08 66 1012.0
20260508141614 19 221 6.4 12.9 0.00 0.64 0.08 66 1012.2
20260508140051 18 239 4.8 14.5 0.00 0.64 0.08 68 1012.1
20260508134612 18 230 8.0 16.1 0.00 0.79 0.08 69 1012.3
20260508133100 18 227 9.7 14.5 0.00 0.79 0.08 69 1012.3
20260508131554 19 234 4.8 11.3 0.00 0.79 0.08 68 1012.5
20260508130053 18 272 4.8 9.7 0.00 0.79 0.08 68 1012.5
20260508124559 18 247 3.2 9.7 0.00 0.89 0.08 67 1012.7
20260508123052 18 192 3.2 9.7 0.00 0.89 0.08 67 1012.8
20260508121559 18 105 1.6 12.9 0.00 0.89 0.08 71 1012.9
20260508120052 17 56 3.2 14.5 0.00 0.89 0.08 75 1012.5
20260508114551 16 0 3.2 9.7 0.00 0.89 0.08 77 1013.0
20260508113107 15 0 0.0 3.2 0.03 0.89 0.08 80 1013.5
20260508111601 15 0 0.0 9.7 0.08 0.89 0.08 82 1013.6
20260508110059 15 135 1.6 6.4 0.08 0.89 0.08 82 1013.7
20260508104554 15 0 0.0 4.8 0.08 0.86 0.08 80 1014.0
20260508103052 16 0 0.0 4.8 0.05 0.84 0.05 79 1014.2
20260508101552 16 0 0.0 4.8 0.00 0.81 0.00 77 1014.1
20260508100054 16 0 0.0 9.7 0.00 0.79 0.00 77 1014.1
20260508094555 16 110 8.0 14.5 0.00 0.79 0.00 75 1014.0
20260508093056 17 104 3.2 6.4 0.00 0.79 0.00 74 1014.1
20260508091556 16 88 0.0 1.6 0.00 0.79 0.00 75 1014.1
20260508090053 16 0 0.0 4.8 0.00 0.79 0.00 77 1013.8
20260508084558 16 90 3.2 6.4 0.00 0.79 0.00 77 1013.7
20260508083108 16 88 1.6 11.3 0.00 0.79 0.00 78 1013.4
20260508081605 16 104 0.0 3.2 0.00 0.79 0.00 78 1013.4
20260508080054 16 104 3.2 9.7 0.00 0.79 0.00 78 1013.5
20260508074601 16 112 3.2 9.7 0.00 0.79 0.00 78 1012.9
20260508073057 16 107 1.6 9.7 0.00 0.79 0.00 77 1012.5
20260508071555 16 114 3.2 9.7 0.00 0.79 0.00 77 1012.4
20260508070057 16 120 3.2 9.7 0.00 0.79 0.00 78 1012.5
20260508064555 16 93 3.2 11.3 0.00 0.79 0.00 80 1012.3
20260508063050 15 88 4.8 11.3 0.00 0.79 0.00 82 1012.3
20260508061552 14 100 3.2 6.4 0.00 0.79 0.00 84 1012.1
20260508060053 14 104 3.2 11.3 0.00 0.79 0.00 84 1011.9
20260508054552 13 101 4.8 11.3 0.00 0.79 0.00 84 1011.7
20260508053055 13 98 4.8 9.7 0.00 0.79 0.00 85 1011.6
20260508051556 13 105 3.2 6.4 0.00 0.79 0.00 85 1011.8
20260508050052 13 76 3.2 6.4 0.00 0.79 0.00 85 1011.5
20260508044554 13 82 1.6 6.4 0.00 0.79 0.00 85 1011.3
20260508043105 13 81 0.0 4.8 0.00 0.79 0.00 85 1011.3
20260508041552 13 0 0.0 3.2 0.00 0.79 0.00 85 1011.2
20260508040057 13 0 0.0 1.6 0.00 0.79 0.00 85 1011.2
20260508034553 13 0 0.0 4.8 0.00 0.79 0.00 85 1010.8
20260508033054 13 0 0.0 3.2 0.00 0.79 0.00 85 1010.9
20260508031552 13 83 3.2 4.8 0.00 0.79 0.00 85 1011.1
20260508030049 13 82 0.0 6.4 0.00 0.79 0.00 85 1011.5
20260508024552 13 82 3.2 9.7 0.00 0.79 0.00 86 1011.5
20260508023049 13 93 1.6 6.4 0.00 0.79 0.00 86 1011.5
20260508021552 13 92 3.2 9.7 0.00 0.79 0.00 86 1011.7
20260508020053 13 101 3.2 6.4 0.00 0.79 0.00 86 1011.7
20260508014552 13 103 3.2 6.4 0.00 0.79 0.00 86 1011.7
20260508013049 13 103 3.2 6.4 0.00 0.79 0.00 86 1011.9
20260508011552 13 100 3.2 6.4 0.00 0.79 0.00 86 1012.1
20260508010050 13 104 3.2 6.4 0.00 0.79 0.00 86 1012.3
20260508004549 13 108 4.8 11.3 0.00 0.79 0.00 86 1012.4
20260508003052 13 104 4.8 11.3 0.00 0.79 0.00 86 1012.8
20260508001551 13 101 1.6 6.4 0.00 0.79 0.00 86 1012.9
20260508000051 13 108 1.6 4.8 0.00 0.79 0.00 86 1013.1
20260507234550 13 108 3.2 4.8 0.00 0.79 0.00 86 1013.1
20260507233053 14 113 3.2 6.4 0.00 0.79 0.00 86 1013.2
20260507231554 14 97 3.2 6.4 0.00 0.79 0.00 86 1013.2
20260507224556 14 89 1.6 6.4 0.00 0.79 0.00 86 1013.3
20260507223057 14 90 1.6 6.4 0.00 0.79 0.00 86 1013.4
20260507221556 15 94 3.2 6.4 0.00 0.79 0.00 86 1013.3
20260507220054 15 148 1.6 4.8 0.00 0.79 0.00 86 1013.0
20260507214616 15 122 1.6 4.8 0.00 0.79 0.79 86 1012.9
20260507213106 14 120 3.2 6.4 0.00 0.79 0.79 86 1012.9
20260507211606 15 130 3.2 11.3 0.00 0.79 0.79 85 1013.0
20260507210056 14 112 3.2 9.7 0.00 0.79 0.79 85 1012.9
20260507204606 15 121 3.2 6.4 0.00 0.79 0.79 85 1012.9
20260507203059 15 109 1.6 11.3 0.00 0.79 0.79 85 1012.7
20260507201553 15 162 1.6 11.3 0.00 0.79 0.79 85 1012.7
20260507200054 15 194 3.2 11.3 0.00 0.79 0.79 85 1012.7
20260507194633 15 0 1.6 11.3 0.00 0.79 0.79 85 1012.3
20260507193053 15 159 1.6 8.0 0.00 0.79 0.79 85 1011.9
20260507191555 14 0 3.2 11.3 0.00 0.79 0.79 85 1011.7
20260507190051 15 161 4.8 12.9 0.00 0.79 0.79 85 1011.6
20260507184605 15 146 3.2 19.3 0.08 0.79 0.79 85 1011.5
20260507183055 15 120 4.8 12.9 0.25 0.79 0.79 85 1011.3
20260507181551 15 109 8.0 17.7 0.33 0.79 0.79 84 1011.2
20260507180057 15 123 6.4 17.7 0.36 0.79 0.79 84 1011.0
20260507174555 15 82 8.0 17.7 0.36 0.71 0.71 83 1010.9
20260507173051 16 102 4.8 9.7 0.23 0.53 0.53 83 1010.8
20260507171554 16 145 0.0 6.4 0.18 0.46 0.46 82 1010.8
20260507170052 16 0 0.0 3.2 0.15 0.38 0.38 82 1010.6
20260507164549 16 0 0.0 8.0 0.08 0.33 0.33 81 1010.7
20260507163106 17 217 3.2 8.0 0.05 0.28 0.28 81 1010.3
20260507161555 17 219 3.2 9.7 0.00 0.25 0.25 81 1010.3
20260507160052 17 232 3.2 6.4 0.00 0.23 0.23 82 1010.3
20260507154559 16 280 4.8 12.9 0.00 0.23 0.23 82 1010.1
20260507153054 17 273 9.7 16.1 0.00 0.23 0.23 83 1010.0
20260507151554 17 265 11.3 20.9 0.00 0.23 0.23 83 1010.1
20260507150057 18 213 6.4 12.9 0.00 0.23 0.23 84 1010.1